When you browse on this site, cookies collect data to enhance your experience and personalize the content and advertising you see.
Visit our Privacy Policy to learn more. By continuing to use the site, you agree to this use of cookies and data.
  • In Netherlands
  • List of Countries
  • For 7 days
  • Water Temperature
  • Satellite Maps
  • Weather Map
  • Weather Widgets
  • user-avatar
    Login

    Hourly Weather Rubashkin

    Today, 21 May, Tuesday

    Time Temperature Precipitation Wind Pressure Humidity
    00:00 +13°C° 0 mm 3 mps 762 mmHg 55%
    01:00 +13°C° 0 mm 3 mps 762 mmHg 55%
    02:00 +14°C° 0 mm 2 mps 762 mmHg 55%
    03:00 +13°C° 0 mm 2 mps 762 mmHg 57%
    04:00 +13°C° 0 mm 2 mps 762 mmHg 59%
    05:00 +14°C° 0 mm 2 mps 762 mmHg 61%
    06:00 +14°C° 0 mm 2 mps 762 mmHg 63%
    07:00 +16°C° 0 mm 2 mps 763 mmHg 57%
    08:00 +18°C° 0 mm 2 mps 763 mmHg 51%
    09:00 +20°C° 0 mm 3 mps 763 mmHg 45%
    10:00 +21°C° 0 mm 3 mps 763 mmHg 42%
    11:00 +22°C° 0 mm 4 mps 763 mmHg 40%
    12:00 +23°C° 0 mm 4 mps 763 mmHg 37%
    13:00 +25°C° 0 mm 4 mps 763 mmHg 37%
    14:00 +25°C° 0 mm 4 mps 762 mmHg 37%
    15:00 +25°C° 0 mm 4 mps 762 mmHg 37%
    16:00 +25°C° 0 mm 3 mps 762 mmHg 42%
    17:00 +25°C° 0 mm 3 mps 762 mmHg 46%
    18:00 +24°C° 0 mm 2 mps 761 mmHg 51%
    19:00 +21°C° 0 mm 3 mps 761 mmHg 53%
    20:00 +19°C° 0 mm 3 mps 761 mmHg 55%
    21:00 +17°C° 0 mm 4 mps 761 mmHg 57%
    22:00 +17°C° 0 mm 4 mps 761 mmHg 55%
    23:00 +17°C° 0 mm 4 mps 761 mmHg 52%

    Tomorrow, 22 May, Wednesday

    Time Temperature Precipitation Wind Pressure Humidity
    00:00 +15°C° 0 mm 5 mps 761 mmHg 50%
    01:00 +15°C° 0 mm 4 mps 761 mmHg 51%
    02:00 +14°C° 0 mm 4 mps 761 mmHg 52%
    03:00 +14°C° 0 mm 4 mps 761 mmHg 54%
    04:00 +13°C° 0 mm 4 mps 761 mmHg 54%
    05:00 +13°C° 0 mm 4 mps 761 mmHg 54%
    06:00 +13°C° 0 mm 5 mps 761 mmHg 55%
    07:00 +15°C° 0 mm 6 mps 760 mmHg 51%
    08:00 +16°C° 0 mm 7 mps 760 mmHg 48%
    09:00 +17°C° 0 mm 8 mps 760 mmHg 44%
    10:00 +20°C° 0 mm 8 mps 760 mmHg 43%
    11:00 +21°C° 0 mm 8 mps 759 mmHg 42%
    12:00 +22°C° 0 mm 8 mps 759 mmHg 40%
    13:00 +22°C° 0 mm 7 mps 758 mmHg 41%
    14:00 +22°C° 0 mm 7 mps 758 mmHg 43%
    15:00 +23°C° 0 mm 7 mps 758 mmHg 44%
    16:00 +22°C° 0 mm 6 mps 758 mmHg 53%
    17:00 +20°C° 0 mm 5 mps 757 mmHg 62%
    18:00 +19°C° 0 mm 4 mps 757 mmHg 71%
    19:00 +18°C° 0.5 mm 4 mps 757 mmHg 78%
    20:00 +17°C° 0.5 mm 4 mps 757 mmHg 86%
    21:00 +17°C° 0.5 mm 4 mps 757 mmHg 93%
    22:00 +15°C° 0.1 mm 4 mps 757 mmHg 93%
    23:00 +15°C° 0.1 mm 4 mps 756 mmHg 93%

    Day after tomorrow, 23 May, Thursday

    Time Temperature Precipitation Wind Pressure Humidity
    00:00 +15°C° 0.1 mm 4 mps 756 mmHg 92%
    01:00 +15°C° 0.2 mm 4 mps 756 mmHg 94%
    02:00 +15°C° 0.2 mm 4 mps 756 mmHg 95%
    03:00 +15°C° 0.2 mm 4 mps 756 mmHg 96%
    04:00 +15°C° 0 mm 4 mps 756 mmHg 95%
    05:00 +15°C° 0 mm 4 mps 755 mmHg 94%
    06:00 +15°C° 0 mm 4 mps 755 mmHg 93%
    07:00 +17°C° 0.1 mm 4 mps 755 mmHg 87%
    08:00 +19°C° 0.1 mm 5 mps 755 mmHg 81%
    09:00 +20°C° 0.1 mm 5 mps 755 mmHg 75%
    10:00 +21°C° 0.1 mm 5 mps 755 mmHg 68%
    11:00 +22°C° 0.1 mm 6 mps 755 mmHg 61%
    12:00 +24°C° 0.1 mm 6 mps 755 mmHg 53%
    13:00 +24°C° 0.2 mm 7 mps 755 mmHg 54%
    14:00 +23°C° 0.2 mm 7 mps 754 mmHg 56%
    15:00 +23°C° 0.2 mm 7 mps 754 mmHg 57%
    16:00 +23°C° 0.5 mm 6 mps 754 mmHg 61%
    17:00 +22°C° 0.5 mm 5 mps 754 mmHg 65%
    18:00 +21°C° 0.5 mm 4 mps 754 mmHg 69%
    19:00 +20°C° 0.5 mm 4 mps 754 mmHg 75%
    20:00 +19°C° 0.5 mm 4 mps 754 mmHg 80%
    21:00 +17°C° 0.5 mm 4 mps 754 mmHg 85%
    22:00 +17°C° 0.3 mm 4 mps 754 mmHg 87%
    23:00 +15°C° 0.3 mm 4 mps 754 mmHg 88%

    24 May, Friday

    Time Temperature Precipitation Wind Pressure Humidity
    00:00 +15°C° 0.3 mm 4 mps 754 mmHg 89%
    01:00 +15°C° 0 mm 4 mps 754 mmHg 90%
    02:00 +14°C° 0 mm 4 mps 754 mmHg 92%
    03:00 +14°C° 0 mm 4 mps 754 mmHg 94%
    04:00 +15°C° 0 mm 4 mps 754 mmHg 93%
    05:00 +15°C° 0 mm 4 mps 754 mmHg 92%
    06:00 +15°C° 0 mm 4 mps 755 mmHg 92%
    07:00 +18°C° 0 mm 4 mps 755 mmHg 85%
    08:00 +20°C° 0 mm 4 mps 755 mmHg 78%
    09:00 +22°C° 0 mm 4 mps 755 mmHg 72%
    10:00 +23°C° 0 mm 4 mps 755 mmHg 66%
    11:00 +25°C° 0 mm 3 mps 755 mmHg 61%
    12:00 +26°C° 0 mm 3 mps 755 mmHg 55%
    13:00 +27°C° 0 mm 3 mps 755 mmHg 52%
    14:00 +27°C° 0 mm 3 mps 755 mmHg 49%
    15:00 +28°C° 0 mm 2 mps 755 mmHg 46%
    16:00 +27°C° 0 mm 2 mps 755 mmHg 49%
    17:00 +27°C° 0 mm 2 mps 755 mmHg 52%
    18:00 +26°C° 0 mm 1 mps 755 mmHg 55%
    19:00 +25°C° 0 mm 1 mps 755 mmHg 60%
    20:00 +23°C° 0 mm 1 mps 755 mmHg 65%
    21:00 +21°C° 0 mm 1 mps 756 mmHg 70%
    22:00 +20°C° 0 mm 1 mps 756 mmHg 73%
    23:00 +20°C° 0 mm 1 mps 756 mmHg 76%

    25 May, Saturday

    Time Temperature Precipitation Wind Pressure Humidity
    00:00 +19°C° 0 mm 1 mps 755 mmHg 79%
    01:00 +19°C° 0 mm 1 mps 755 mmHg 80%
    02:00 +17°C° 0 mm 0 mps 755 mmHg 81%
    03:00 +17°C° 0 mm 0 mps 755 mmHg 81%
    04:00 +19°C° 0 mm 1 mps 755 mmHg 80%
    05:00 +19°C° 0 mm 2 mps 755 mmHg 79%
    06:00 +19°C° 0 mm 2 mps 755 mmHg 78%
    07:00 +21°C° 0 mm 3 mps 755 mmHg 72%
    08:00 +23°C° 0 mm 4 mps 755 mmHg 66%
    09:00 +26°C° 0 mm 4 mps 755 mmHg 60%
    10:00 +26°C° 0 mm 4 mps 754 mmHg 59%
    11:00 +26°C° 0 mm 5 mps 754 mmHg 58%
    12:00 +27°C° 0 mm 5 mps 754 mmHg 58%
    13:00 +27°C° 0.1 mm 5 mps 753 mmHg 56%
    14:00 +28°C° 0.1 mm 6 mps 753 mmHg 55%
    15:00 +28°C° 0.1 mm 6 mps 752 mmHg 53%
    16:00 +28°C° 0.2 mm 5 mps 752 mmHg 57%
    17:00 +27°C° 0.2 mm 5 mps 751 mmHg 60%
    18:00 +27°C° 0.2 mm 4 mps 750 mmHg 63%
    19:00 +25°C° 0.3 mm 5 mps 750 mmHg 66%
    20:00 +23°C° 0.3 mm 6 mps 751 mmHg 68%
    21:00 +22°C° 0.3 mm 7 mps 751 mmHg 70%
    22:00 +21°C° 0.6 mm 7 mps 750 mmHg 76%
    23:00 +21°C° 0.6 mm 7 mps 750 mmHg 81%

    26 May, Sunday

    Time Temperature Precipitation Wind Pressure Humidity
    00:00 +20°C° 0.6 mm 6 mps 750 mmHg 86%
    01:00 +19°C° 0 mm 6 mps 750 mmHg 87%
    02:00 +18°C° 0 mm 7 mps 751 mmHg 87%
    03:00 +17°C° 0 mm 7 mps 751 mmHg 87%
    04:00 +17°C° 0 mm 7 mps 751 mmHg 88%
    05:00 +17°C° 0 mm 7 mps 752 mmHg 89%
    06:00 +17°C° 0 mm 7 mps 752 mmHg 90%
    07:00 +18°C° 0 mm 7 mps 752 mmHg 84%
    08:00 +20°C° 0 mm 7 mps 753 mmHg 78%
    09:00 +21°C° 0 mm 8 mps 753 mmHg 72%
    10:00 +22°C° 0 mm 8 mps 753 mmHg 67%
    11:00 +23°C° 0 mm 9 mps 753 mmHg 62%
    12:00 +24°C° 0 mm 9 mps 753 mmHg 57%
    13:00 +24°C° 0.7 mm 9 mps 753 mmHg 60%
    14:00 +24°C° 0.7 mm 9 mps 753 mmHg 63%
    15:00 +23°C° 0.7 mm 9 mps 753 mmHg 67%
    16:00 +23°C° 1 mm 8 mps 753 mmHg 69%
    17:00 +22°C° 1 mm 7 mps 753 mmHg 72%
    18:00 +22°C° 1 mm 7 mps 753 mmHg 74%
    19:00 +21°C° 0.3 mm 6 mps 754 mmHg 79%
    20:00 +20°C° 0.3 mm 5 mps 754 mmHg 83%
    21:00 +19°C° 0.3 mm 5 mps 755 mmHg 87%
    22:00 +17°C° 0 mm 5 mps 755 mmHg 88%
    23:00 +17°C° 0 mm 5 mps 755 mmHg 90%
    Show more